TimePDT,TemperatureF,Dew PointF,Humidity,Sea Level PressureIn,VisibilityMPH,Wind Direction,Wind SpeedMPH,Gust SpeedMPH,PrecipitationIn,Events,Conditions,WindDirDegrees,DateUTC
12:56 AM,73.9,28.0,18,29.76,10.0,South,11.5,-,N/A,,Clear,180,2012-10-09 07:56:00
1:56 AM,72.9,30.0,21,29.78,10.0,SSE,12.7,-,N/A,,Clear,160,2012-10-09 08:56:00
2:56 AM,70.9,30.0,22,29.78,10.0,ESE,6.9,-,N/A,,Clear,120,2012-10-09 09:56:00
3:56 AM,70.9,30.0,22,29.76,10.0,South,16.1,-,N/A,,Clear,180,2012-10-09 10:56:00
4:56 AM,68.0,31.1,25,29.77,10.0,SSW,16.1,-,N/A,,Clear,210,2012-10-09 11:56:00
5:56 AM,64.9,32.0,29,29.79,10.0,SSW,16.1,-,N/A,,Clear,210,2012-10-09 12:56:00
6:56 AM,64.9,32.0,29,29.82,10.0,SSW,15.0,-,N/A,,Clear,210,2012-10-09 13:56:00
7:56 AM,66.9,32.9,28,29.83,10.0,SSW,10.4,-,N/A,,Clear,210,2012-10-09 14:56:00
8:56 AM,74.8,29.1,19,29.84,10.0,South,11.5,-,N/A,,Clear,190,2012-10-09 15:56:00
9:56 AM,79.0,22.1,12,29.83,10.0,South,10.4,-,N/A,,Clear,190,2012-10-09 16:56:00
10:56 AM,82.9,21.0,10,29.82,10.0,South,11.5,-,N/A,,Clear,170,2012-10-09 17:56:00
11:56 AM,83.8,25.2,12,29.80,10.0,SSW,10.4,-,N/A,,Clear,210,2012-10-09 18:56:00
12:56 PM,84.9,28.0,13,29.77,10.0,SSW,9.2,-,N/A,,Clear,200,2012-10-09 19:56:00
1:56 PM,88.0,34.0,15,29.75,10.0,SE,11.5,-,N/A,,Clear,130,2012-10-09 20:56:00
2:56 PM,88.0,27.1,11,29.73,10.0,West,10.4,-,N/A,,Clear,260,2012-10-09 21:56:00
3:56 PM,88.0,26.1,11,29.72,10.0,SSE,3.5,-,N/A,,Clear,150,2012-10-09 22:56:00
4:56 PM,86.9,26.1,11,29.72,10.0,South,11.5,-,N/A,,Clear,190,2012-10-09 23:56:00
5:56 PM,84.9,24.1,11,29.73,10.0,SSW,16.1,-,N/A,,Clear,210,2012-10-10 00:56:00
6:56 PM,82.9,25.2,12,29.75,10.0,SW,10.4,-,N/A,,Clear,220,2012-10-10 01:56:00
7:56 PM,77.0,28.0,17,29.78,10.0,SSE,8.1,-,N/A,,Clear,150,2012-10-10 02:56:00
8:56 PM,73.9,30.0,20,29.79,10.0,Calm,Calm,-,N/A,,Clear,0,2012-10-10 03:56:00
9:56 PM,72.0,31.1,22,29.79,10.0,Calm,Calm,-,N/A,,Clear,0,2012-10-10 04:56:00
10:56 PM,72.0,30.0,21,29.79,10.0,South,5.8,-,N/A,,Clear,180,2012-10-10 05:56:00
11:56 PM,68.9,32.9,26,29.79,10.0,Calm,Calm,-,N/A,,Clear,0,2012-10-10 06:56:00